#timestamp,LO_Frequency,Hit,StdDev 
1532152815.3,286046999.2,N
1532152835.1,286046996.7,Y
1532152855.7,286046997.2,P
1532152875.6,286046999.2,N
1532152895.4,286046998.8,N
1532152915.2,286046999.4,N
1532152935.1,286046998.4,N
1532152936.0,286046998.4,N
1532152955.8,286046998.2,N
1532152975.6,286046998.6,N
1532152995.5,286046999.5,N
1532153015.3,286046999.3,N
1532153035.2,286046999.1,N
1532153055.4,286046998.8,N
1532153075.2,286046998.4,N
1532153095.1,286046998.5,N
1532153096.0,286046998.5,N
1532153115.8,286046998.9,N
1532153135.6,286046998.6,N
1532153155.5,286046998.4,N
1532153175.3,286047001.0,N
1532153195.1,286046998.8,N
1532153215.9,286046999.4,N
1532153235.7,286046998.9,N
1532153255.6,286046998.2,N
1532153275.4,286046998.3,N
1532153295.2,286046999.4,N
1532153315.1,286047000.8,N
1532153316.0,286047000.8,N
1532153335.8,286047001.2,N
1532153355.7,286046998.3,N
1532153375.5,286046998.1,N
1532153395.3,286046998.7,N
1532153415.2,286046998.5,N
1532153435.9,286046998.9,N
1532153455.7,286046998.5,N
1532153475.6,286046999.5,N
1532153495.4,286046999.5,N
1532153515.3,286046997.4,Y
1532153535.1,286046999.4,P
1532153536.0,286046999.4,P
1532153555.8,286046998.6,P
1532153575.7,286046998.2,Y
1532153595.5,286047001.1,P
1532153615.3,286046998.5,N
1532153635.8,286047000.5,N
1532153655.6,286046998.8,N
1532153675.5,286046998.8,N
1532153695.3,286046996.6,Y
1532153715.1,286046998.8,P
1532153735.9,286047000.8,N
1532153755.7,286047000.7,N
1532153775.6,286047002.4,N
1532153795.4,286047002.2,N
1532153815.2,286047000.6,N
1532153835.1,286046998.5,N
1532153836.0,286046998.5,N
1532153855.8,286046998.4,N
1532153875.6,286047000.7,N
1532153895.5,286046998.6,N
1532153915.3,286046998.3,N
1532153935.2,286047001.0,N
1532153955.9,286047000.5,N
1532153975.6,286046998.6,N
1532153995.5,286047000.9,N
1532154015.3,286047000.1,N
1532154035.1,286047000.6,N
1532154055.9,286047000.2,N
1532154075.7,286047002.0,N
1532154095.6,286047000.0,N
1532154115.4,286047002.5,N
1532154135.2,286046999.8,N
1532154155.1,286046999.8,N
1532154156.0,286046999.8,N
1532154175.8,286047000.2,N
1532154195.7,286047001.7,N
1532154215.5,286047002.1,N
1532154235.3,286047001.9,N
1532154255.2,286047002.3,N
1532154275.0,286046999.7,N
1532154275.9,286046999.7,N
1532154295.7,286046999.7,N
1532154315.6,286047002.6,N
1532154335.4,286047001.5,N
1532154355.3,286047001.6,N
1532154375.1,286047002.5,N
1532154395.8,286047001.6,N
1532154415.7,286047002.1,N
1532154435.5,286047000.1,N
1532154455.4,286047002.8,N
1532154475.2,286047002.4,N
1532154495.0,286046999.9,N
1532154495.9,286046999.9,N
1532154515.8,286047000.1,N
1532154535.6,286047002.7,N
1532154555.5,286047000.1,N
1532154575.3,286047002.5,N
1532154595.1,286047002.5,N
1532154615.9,286047002.3,N
1532154635.7,286047001.9,N
1532154655.5,286047002.6,N
1532154675.4,286047002.2,N
1532154695.2,286047001.9,N
1532154715.1,286047001.6,N
1532154716.0,286047001.6,N
1532154735.8,286047002.7,N
1532154755.9,286047002.2,N
1532154775.7,286047002.6,N
1532154795.6,286047002.6,N
1532154815.4,286047001.9,N
1532154835.3,286047001.3,N
1532154855.1,286047002.3,N
1532154856.0,286047002.3,N
1532154875.8,286047000.1,N
1532154895.7,286047002.8,N
1532154915.5,286047002.5,N
1532154935.3,286047002.5,N
1532154955.2,286047002.5,N
1532154975.0,286047002.5,N
1532154975.9,286047002.5,N
1532154995.8,286047002.1,N
1532155015.6,286047004.3,Y
1532155035.4,286047002.8,P
1532155055.3,286047000.3,N
1532155075.1,286046998.4,N
1532155095.9,286046998.1,N
1532155115.7,286047001.0,N
1532155135.5,286047001.1,N
1532155155.4,286047001.1,N
1532155175.2,286047000.8,N
1532155195.0,286047000.8,N
1532155195.9,286047000.8,N
1532155215.8,286047000.7,N
1532155235.6,286047001.0,N
1532155255.5,286047000.9,N
1532155275.3,286047001.0,N
1532155295.1,286046998.6,N
1532155315.9,286046998.3,N
1532155335.7,286046998.7,N
1532155355.5,286046998.1,N
1532155375.4,286046998.6,N
1532155395.2,286046998.2,N
1532155415.1,286047001.0,N
1532155416.0,286047001.0,N
1532155435.8,286046998.1,N
1532155455.6,286047000.7,N
1532155475.9,286046999.1,N
1532155495.7,286047001.2,N
1532155515.6,286047000.8,N
1532155535.4,286047000.8,N
1532155555.3,286047001.1,N
1532155575.1,286047000.4,N
1532155576.0,286047000.4,N
1532155595.8,286046999.9,N
1532155615.7,286046999.9,N
1532155635.5,286047000.2,N
1532155655.3,286047001.0,N
1532155675.2,286046999.7,N
1532155695.0,286047000.3,N
1532155695.9,286047000.3,N
1532155715.8,286046999.9,N
1532155735.6,286047000.7,N
1532155755.4,286046999.8,N
1532155775.3,286046998.2,N
1532155795.1,286047000.6,N
1532155815.8,286047000.3,N
1532155835.7,286047001.5,N
1532155855.5,286047002.3,N
1532155875.4,286047002.2,N
1532155895.2,286047002.8,N
1532155915.0,286047002.6,N
1532155915.9,286047002.6,N
1532155935.8,286046999.8,N
1532155955.6,286047002.8,N
1532155975.5,286047002.0,N
1532155995.3,286047000.1,N
1532156015.1,286047000.7,N
1532156035.9,286047000.4,N
1532156055.7,286047000.2,N
1532156075.5,286047000.9,N
1532156095.4,286047000.6,N
1532156115.2,286047000.2,N
1532156135.1,286046999.9,N
1532156136.0,286046999.9,N
1532156155.8,286047000.3,N
1532156175.6,286047000.9,N
1532156195.5,286047001.2,N
1532156215.3,286046998.1,N
1532156235.1,286046998.5,N
1532156255.9,286046998.6,N
1532156275.7,286046999.4,N
1532156295.6,286046999.3,N
1532156315.4,286046998.1,N
1532156335.2,286047000.5,N
1532156355.1,286047000.9,N
1532156356.0,286047000.9,N
1532156375.8,286047000.9,N
1532156395.7,286047000.9,N
